STARLINK-1043, 44748

Orbit data source: Space-Track

STARLINK-1043, 44748 is a payload satellite owned by SpaceX/Seattle (US) in LEO that was launched on Mon, 11 Nov 2019 UTC via an FALCON 9 launch vehicle from the Air Force Eastern Test Range (AFETR). Payload-class satellites include a variety of spacecraft equipped with specific instruments for various scientific and technological missions. These include communications satellites like Starlink; space stations such as the ISS; scientific satellites like the Hubble; Earth observation satellites from companies like Planet Labs, Umbra, and HawkEye 360; GPS; miniature CubeSats for education and research; and military/defense satellites.

Loading next visibility...
Identifier
44748, 2019-074AM
Orbit
LEO
Country
Flag of USUS
Related business
Manufacturer
SpaceX/Seattle
Mission
Partially operational Commercial Communications
Bus & Motor
STARLINK, Unknown motor
Mass
260 kg wet, ~248 kg dry
Launch date (UTC)
2019-11-11 (7 years ago)
Launch vehicle
FALCON 9
Launch site
Air Force Eastern Test Range (AFETR)
Object type
Payload
Rocket body
Debris
Shape & HBR
Box + 1 Pan, 10.1 m
Radar Cross Section
13.562 m², Large (>1 m²)

Expand to show TLE details & history
Last TLE update: 2 days ago

TLE from 2 days ago
0 STARLINK-1043
1 44748U 19074AM  26171.10227570  .00035143  00000-0  37794-3 0  9998
2 44748  53.0487  57.1422 0000654 116.1895 243.9186 15.63425799364617
Epoch: 2026-06-20T02:27Z
TLE epoch observation values (Epoch: 2026-06-20T02:27:16.620Z)
Latitude
-0.00002°
Longitude
112.00121°
Altitude
378.865 km
Speed
7.684 km/s
True Right ascension
03h 48m 34s
True Declination
0° 00' 00"
Sunlit
Object was in daylight at epoch
Visualization orbit readout
Latitude
Unknown
Longitude
Unknown
Altitude
Unknown
Speed
Unknown
Apparent Right ascension
Unknown
Apparent Declination
Unknown
Sunlit
N/A
Visualization observer readout
Local Sidereal Time
21:36:02
Azimuth
Unknown
Elevation
Unknown
Doppler factor
Unknown
Orbital elements
Apogee altitude
378.49 km
Perigee altitude
377.606 km
Semi-major axis
6,756.185 km
Eccentricity
0.00007
Inclination
53.0487°
RAAN
57.1422°
Arg. of periapsis
116.1895°
True anomaly
243.91187°
Mean anomaly
243.9186°
Eccentric anomaly
243.91523°
Mean motion
3.90833 °/min
Orbital period
92.11 mins
BSTAR
0.00037794
Loading maneuver chart data...
Computing Atmospheric mass density...

Documentation

Showing up to 5 results
|